Japanese version Home page |
Updated on November 3, 2020 |
Profile |
Orbital ElementsEpoch 2021 Jan. 26.0 TT = JDT 2459240.5 T 2021 Jan. 22.86481 TT MPCW q 2.3434111 (2000.0) P Q n 0.15433767 Peri. 132.50064 -0.62880522 +0.75698658 a 3.4420836 Node 97.65937 -0.75559679 -0.54093661 e 0.3191882 Incl. 10.32865 -0.18351424 -0.36655001 P 6.39 From 498 observations 2001 Mar. 20-2014 June 18, mean residual 0".5.
|
Magnitudes Graphm1 = 12.5 + 5 log d + 15 log r
|
The orbital elements are published on M.P.E.C. 2017-A77.
|